Time,TemperatureF,DewpointF,PressureIn,WindDirection,WindDirectionDegrees,WindSpeedMPH,WindSpeedGustMPH,Humidity,HourlyPrecipIn,Conditions,Clouds,dailyrainin,SoftwareType,DateUTC
2013-03-15 00:01:00,47.4,-13.6,30.18,SSW,194,0.0,0.0,7,0.00,,---,0.00,VWS V14.01,2013-03-15 07:01:00,
2013-03-15 00:06:00,47.3,-13.7,30.18,SSW,194,0.0,0.0,7,0.00,,---,0.00,VWS V14.01,2013-03-15 07:06:00,
2013-03-15 00:11:00,47.4,-13.6,30.18,SSW,194,0.0,0.0,7,0.00,,---,0.00,VWS V14.01,2013-03-15 07:11:00,
2013-03-15 00:16:00,47.4,-13.6,30.18,SSW,194,0.0,0.0,7,0.00,,---,0.00,VWS V14.01,2013-03-15 07:16:00,
2013-03-15 00:21:00,47.4,-16.7,30.18,SSW,194,0.0,0.0,6,0.00,,---,0.00,VWS V14.01,2013-03-15 07:21:00,
2013-03-15 00:26:00,47.4,-16.7,30.18,SSW,194,0.0,0.0,6,0.00,,---,0.00,VWS V14.01,2013-03-15 07:26:00,
2013-03-15 00:31:00,47.3,-16.8,30.18,SSW,194,0.0,0.0,6,0.00,,---,0.00,VWS V14.01,2013-03-15 07:31:00,
2013-03-15 00:36:00,47.3,-16.8,30.18,SSW,194,0.0,0.0,6,0.00,,---,0.00,VWS V14.01,2013-03-15 07:36:00,
2013-03-15 00:41:00,47.3,-16.8,30.17,SSW,194,0.0,0.0,6,0.00,,---,0.00,VWS V14.01,2013-03-15 07:41:00,
2013-03-15 00:46:00,47.3,-16.8,30.17,SSW,194,0.0,0.0,6,0.00,,---,0.00,VWS V14.01,2013-03-15 07:46:00,
2013-03-15 00:51:00,47.3,-16.8,30.17,SSW,194,1.0,1.0,6,0.00,,---,0.00,VWS V14.01,2013-03-15 07:51:00,
2013-03-15 00:56:00,47.4,-16.7,30.17,SSW,194,0.0,0.0,6,0.00,,---,0.00,VWS V14.01,2013-03-15 07:56:00,
2013-03-15 01:01:00,47.4,-16.7,30.17,SSW,194,0.0,0.0,6,0.00,,---,0.00,VWS V14.01,2013-03-15 08:01:00,
2013-03-15 01:06:00,47.7,-20.0,30.17,NE,46,0.0,0.0,5,0.00,,---,0.00,VWS V14.01,2013-03-15 08:06:00,
2013-03-15 01:11:00,47.8,-19.9,30.18,NE,46,0.0,0.0,5,0.00,,---,0.00,VWS V14.01,2013-03-15 08:11:00,
2013-03-15 01:16:00,48.0,-19.8,30.18,NE,46,0.0,0.0,5,0.00,,---,0.00,VWS V14.01,2013-03-15 08:16:00,
2013-03-15 01:21:00,48.1,-24.0,30.18,NE,46,0.0,1.0,4,0.00,,---,0.00,VWS V14.01,2013-03-15 08:21:00,
2013-03-15 01:26:00,48.2,-23.9,30.17,NE,46,0.0,0.0,4,0.00,,---,0.00,VWS V14.01,2013-03-15 08:26:00,
2013-03-15 01:31:00,48.3,-23.8,30.18,NE,46,0.0,0.0,4,0.00,,---,0.00,VWS V14.01,2013-03-15 08:31:00,
2013-03-15 01:36:00,48.3,-23.8,30.18,NE,46,0.0,0.0,4,0.00,,---,0.00,VWS V14.01,2013-03-15 08:36:00,
2013-03-15 01:41:00,48.3,-23.8,30.18,NE,46,0.0,0.0,4,0.00,,---,0.00,VWS V14.01,2013-03-15 08:41:00,
2013-03-15 01:46:00,48.4,-23.7,30.18,NE,46,0.0,0.0,4,0.00,,---,0.00,VWS V14.01,2013-03-15 08:46:00,
2013-03-15 01:51:00,48.5,-23.7,30.18,NE,46,0.0,1.0,4,0.00,,---,0.00,VWS V14.01,2013-03-15 08:51:00,
2013-03-15 01:57:00,48.5,-23.7,30.18,NE,46,0.0,0.0,4,0.00,,---,0.00,VWS V14.01,2013-03-15 08:57:00,
2013-03-15 02:02:00,48.5,-19.4,30.18,NE,46,0.0,0.0,5,0.00,,---,0.00,VWS V14.01,2013-03-15 09:02:00,
2013-03-15 02:07:00,48.6,-19.3,30.18,NE,46,0.0,0.0,5,0.00,,---,0.00,VWS V14.01,2013-03-15 09:07:00,
2013-03-15 02:12:00,48.6,-19.3,30.18,NE,46,0.0,0.0,5,0.00,,---,0.00,VWS V14.01,2013-03-15 09:12:00,
2013-03-15 02:17:00,48.6,-19.3,30.18,NE,46,0.0,0.0,5,0.00,,---,0.00,VWS V14.01,2013-03-15 09:17:00,
2013-03-15 02:22:00,48.7,-19.3,30.18,NE,46,0.0,0.0,5,0.00,,---,0.00,VWS V14.01,2013-03-15 09:22:00,
2013-03-15 02:27:00,48.7,-19.3,30.18,NE,46,1.0,2.0,5,0.00,,---,0.00,VWS V14.01,2013-03-15 09:27:00,
2013-03-15 02:32:00,48.8,-19.2,30.18,NE,46,0.0,0.0,5,0.00,,---,0.00,VWS V14.01,2013-03-15 09:32:00,
2013-03-15 02:37:00,48.8,-19.2,30.18,NE,46,0.0,0.0,5,0.00,,---,0.00,VWS V14.01,2013-03-15 09:37:00,
2013-03-15 02:42:00,48.8,-19.2,30.18,NE,46,0.0,0.0,5,0.00,,---,0.00,VWS V14.01,2013-03-15 09:42:00,
2013-03-15 02:47:00,48.8,-19.2,30.18,NE,46,0.0,0.0,5,0.00,,---,0.00,VWS V14.01,2013-03-15 09:47:00,
2013-03-15 02:52:00,48.9,-19.1,30.18,NE,46,0.0,3.0,5,0.00,,---,0.00,VWS V14.01,2013-03-15 09:52:00,
2013-03-15 02:57:00,48.9,-19.1,30.18,NE,46,0.0,0.0,5,0.00,,---,0.00,VWS V14.01,2013-03-15 09:57:00,
2013-03-15 03:02:00,49.0,-19.1,30.18,NE,46,0.0,0.0,5,0.00,,---,0.00,VWS V14.01,2013-03-15 10:02:00,
2013-03-15 03:07:00,49.0,-19.1,30.18,NE,46,0.0,1.0,5,0.00,,---,0.00,VWS V14.01,2013-03-15 10:07:00,
2013-03-15 03:12:00,49.0,-19.1,30.18,NE,46,0.0,0.0,5,0.00,,---,0.00,VWS V14.01,2013-03-15 10:12:00,
2013-03-15 03:17:00,49.0,-19.1,30.18,NE,43,0.0,1.0,5,0.00,,---,0.00,VWS V14.01,2013-03-15 10:17:00,
2013-03-15 03:22:00,49.0,-19.1,30.18,NE,43,0.0,0.0,5,0.00,,---,0.00,VWS V14.01,2013-03-15 10:22:00,
2013-03-15 03:27:00,49.0,-19.1,30.18,NE,43,0.0,0.0,5,0.00,,---,0.00,VWS V14.01,2013-03-15 10:27:00,
2013-03-15 03:32:00,49.1,-19.0,30.18,NE,43,0.0,0.0,5,0.00,,---,0.00,VWS V14.01,2013-03-15 10:32:00,
2013-03-15 03:37:00,49.1,-19.0,30.18,NE,43,0.0,0.0,5,0.00,,---,0.00,VWS V14.01,2013-03-15 10:37:00,
2013-03-15 03:42:00,49.1,-19.0,30.18,NE,43,0.0,0.0,5,0.00,,---,0.00,VWS V14.01,2013-03-15 10:42:00,
2013-03-15 03:47:00,49.1,-19.0,30.18,NE,43,0.0,0.0,5,0.00,,---,0.00,VWS V14.01,2013-03-15 10:47:00,
2013-03-15 03:52:00,49.1,-15.4,30.18,NE,43,0.0,0.0,6,0.00,,---,0.00,VWS V14.01,2013-03-15 10:52:00,
2013-03-15 03:57:00,49.1,-15.4,30.18,NE,43,0.0,0.0,6,0.00,,---,0.00,VWS V14.01,2013-03-15 10:57:00,
2013-03-15 04:02:00,49.1,-15.4,30.18,NE,43,0.0,0.0,6,0.00,,---,0.00,VWS V14.01,2013-03-15 11:02:00,
2013-03-15 04:07:00,49.2,-15.4,30.18,NE,43,0.0,0.0,6,0.00,,---,0.00,VWS V14.01,2013-03-15 11:07:00,
2013-03-15 04:12:00,49.2,-15.4,30.18,NE,43,0.0,0.0,6,0.00,,---,0.00,VWS V14.01,2013-03-15 11:12:00,
2013-03-15 04:17:00,49.2,-15.4,30.18,NE,43,0.0,0.0,6,0.00,,---,0.00,VWS V14.01,2013-03-15 11:17:00,
2013-03-15 04:22:00,49.2,-15.4,30.17,NE,43,0.0,0.0,6,0.00,,---,0.00,VWS V14.01,2013-03-15 11:22:00,
2013-03-15 04:27:00,49.2,-15.4,30.17,NE,43,0.0,0.0,6,0.00,,---,0.00,VWS V14.01,2013-03-15 11:27:00,
2013-03-15 04:32:00,49.2,-15.4,30.17,NE,43,0.0,0.0,6,0.00,,---,0.00,VWS V14.01,2013-03-15 11:32:00,
2013-03-15 04:37:00,49.2,-15.4,30.17,NE,43,0.0,0.0,6,0.00,,---,0.00,VWS V14.01,2013-03-15 11:37:00,
2013-03-15 04:42:00,49.3,-15.3,30.17,NE,43,0.0,0.0,6,0.00,,---,0.00,VWS V14.01,2013-03-15 11:42:00,
2013-03-15 04:47:00,49.3,-15.3,30.17,NE,43,0.0,0.0,6,0.00,,---,0.00,VWS V14.01,2013-03-15 11:47:00,
2013-03-15 04:52:00,49.3,-15.3,30.17,NE,43,0.0,0.0,6,0.00,,---,0.00,VWS V14.01,2013-03-15 11:52:00,
2013-03-15 04:57:00,49.3,-15.3,30.17,NE,43,0.0,0.0,6,0.00,,---,0.00,VWS V14.01,2013-03-15 11:57:00,
2013-03-15 05:02:00,49.3,-15.3,30.17,NE,43,0.0,0.0,6,0.00,,---,0.00,VWS V14.01,2013-03-15 12:02:00,
2013-03-15 05:07:00,49.3,-15.3,30.17,NE,43,0.0,0.0,6,0.00,,---,0.00,VWS V14.01,2013-03-15 12:07:00,
2013-03-15 05:12:00,49.3,-15.3,30.17,NE,43,0.0,0.0,6,0.00,,---,0.00,VWS V14.01,2013-03-15 12:12:00,
2013-03-15 05:17:00,49.3,-15.3,30.17,NE,43,0.0,0.0,6,0.00,,---,0.00,VWS V14.01,2013-03-15 12:17:00,
2013-03-15 05:22:00,49.3,-15.3,30.17,NE,43,0.0,0.0,6,0.00,,---,0.00,VWS V14.01,2013-03-15 12:22:00,
2013-03-15 05:27:00,49.3,-15.3,30.17,NE,43,0.0,0.0,6,0.00,,---,0.00,VWS V14.01,2013-03-15 12:27:00,
2013-03-15 05:32:00,49.3,-15.3,30.18,NE,43,0.0,0.0,6,0.00,,---,0.00,VWS V14.01,2013-03-15 12:32:00,
2013-03-15 05:37:00,49.3,-15.3,30.18,East,101,0.0,1.0,6,0.00,,---,0.00,VWS V14.01,2013-03-15 12:37:00,
2013-03-15 05:42:00,49.3,-15.3,30.18,East,101,0.0,0.0,6,0.00,,---,0.00,VWS V14.01,2013-03-15 12:42:00,
2013-03-15 05:47:00,49.3,-15.3,30.18,East,89,1.0,2.0,6,0.00,,---,0.00,VWS V14.01,2013-03-15 12:47:00,
2013-03-15 05:52:00,49.3,-15.3,30.18,East,89,0.0,0.0,6,0.00,,---,0.00,VWS V14.01,2013-03-15 12:52:00,
2013-03-15 05:57:00,49.3,-15.3,30.18,East,89,0.0,0.0,6,0.00,,---,0.00,VWS V14.01,2013-03-15 12:57:00,
2013-03-15 06:02:00,49.3,-15.3,30.18,East,89,0.0,0.0,6,0.00,,---,0.00,VWS V14.01,2013-03-15 13:02:00,
2013-03-15 06:07:00,49.2,-15.4,30.18,East,89,0.0,0.0,6,0.00,,---,0.00,VWS V14.01,2013-03-15 13:07:00,
2013-03-15 06:12:00,49.2,-15.4,30.18,East,89,0.0,0.0,6,0.00,,---,0.00,VWS V14.01,2013-03-15 13:12:00,
2013-03-15 06:17:00,49.2,-15.4,30.18,East,89,0.0,0.0,6,0.00,,---,0.00,VWS V14.01,2013-03-15 13:17:00,
2013-03-15 06:22:00,49.2,-15.4,30.18,South,177,0.0,2.0,6,0.00,,---,0.00,VWS V14.01,2013-03-15 13:22:00,
2013-03-15 06:27:00,49.2,-15.4,30.19,South,177,0.0,0.0,6,0.00,,---,0.00,VWS V14.01,2013-03-15 13:27:00,
2013-03-15 06:32:00,49.2,-12.3,30.19,South,176,0.0,2.0,7,0.00,,---,0.00,VWS V14.01,2013-03-15 13:32:00,
2013-03-15 06:37:00,49.3,-12.2,30.19,South,176,0.0,0.0,7,0.00,,---,0.00,VWS V14.01,2013-03-15 13:37:00,
2013-03-15 06:42:00,49.3,-9.5,30.19,West,259,0.0,2.0,8,0.00,,---,0.00,VWS V14.01,2013-03-15 13:42:00,
2013-03-15 06:47:00,49.4,-9.5,30.18,East,85,0.0,0.0,8,0.00,,---,0.00,VWS V14.01,2013-03-15 13:47:00,
2013-03-15 06:52:00,49.5,-7.0,30.19,East,85,0.0,0.0,9,0.00,,---,0.00,VWS V14.01,2013-03-15 13:52:00,
2013-03-15 06:58:00,49.4,-7.1,30.18,East,85,0.0,0.0,9,0.00,,---,0.00,VWS V14.01,2013-03-15 13:58:00,
2013-03-15 07:03:00,49.4,-7.1,30.19,East,85,0.0,1.0,9,0.00,,---,0.00,VWS V14.01,2013-03-15 14:03:00,
2013-03-15 07:08:00,49.4,-7.1,30.19,East,85,0.0,0.0,9,0.00,,---,0.00,VWS V14.01,2013-03-15 14:08:00,
2013-03-15 07:13:00,49.4,-7.1,30.19,NE,51,0.0,4.0,9,0.00,,---,0.00,VWS V14.01,2013-03-15 14:13:00,
2013-03-15 07:18:00,49.4,-7.1,30.19,NE,51,0.0,0.0,9,0.00,,---,0.00,VWS V14.01,2013-03-15 14:18:00,
2013-03-15 07:23:00,49.4,-7.1,30.19,NE,51,0.0,0.0,9,0.00,,---,0.00,VWS V14.01,2013-03-15 14:23:00,
2013-03-15 07:28:00,49.4,-4.9,30.19,NE,51,0.0,0.0,10,0.00,,---,0.00,VWS V14.01,2013-03-15 14:28:00,
2013-03-15 07:33:00,49.5,-4.8,30.19,NE,51,0.0,0.0,10,0.00,,---,0.00,VWS V14.01,2013-03-15 14:33:00,
2013-03-15 07:38:00,49.5,-7.0,30.19,NE,51,0.0,0.0,9,0.00,,---,0.00,VWS V14.01,2013-03-15 14:38:00,
2013-03-15 07:43:00,49.5,-7.0,30.19,NE,51,0.0,0.0,9,0.00,,---,0.00,VWS V14.01,2013-03-15 14:43:00,
2013-03-15 07:48:00,49.5,-7.0,30.20,NE,51,0.0,0.0,9,0.00,,---,0.00,VWS V14.01,2013-03-15 14:48:00,
2013-03-15 07:53:00,49.5,-7.0,30.20,NE,51,0.0,0.0,9,0.00,,---,0.00,VWS V14.01,2013-03-15 14:53:00,
2013-03-15 07:58:00,49.5,-7.0,30.20,NE,51,0.0,0.0,9,0.00,,---,0.00,VWS V14.01,2013-03-15 14:58:00,
2013-03-15 08:03:00,49.5,-7.0,30.20,NE,51,0.0,0.0,9,0.00,,---,0.00,VWS V14.01,2013-03-15 15:03:00,
2013-03-15 08:08:00,49.6,-6.9,30.20,NE,51,0.0,0.0,9,0.00,,---,0.00,VWS V14.01,2013-03-15 15:08:00,
2013-03-15 08:13:00,49.5,-7.0,30.20,NE,51,0.0,0.0,9,0.00,,---,0.00,VWS V14.01,2013-03-15 15:13:00,
2013-03-15 08:18:00,49.5,-7.0,30.21,NE,51,0.0,0.0,9,0.00,,---,0.00,VWS V14.01,2013-03-15 15:18:00,
2013-03-15 08:23:00,49.5,-7.0,30.21,NE,51,0.0,0.0,9,0.00,,---,0.00,VWS V14.01,2013-03-15 15:23:00,
2013-03-15 08:28:00,49.6,-6.9,30.21,NE,51,0.0,0.0,9,0.00,,---,0.00,VWS V14.01,2013-03-15 15:28:00,
2013-03-15 08:33:00,49.5,-7.0,30.21,NE,51,0.0,0.0,9,0.00,,---,0.00,VWS V14.01,2013-03-15 15:33:00,
2013-03-15 08:38:00,49.6,-6.9,30.21,NE,51,0.0,0.0,9,0.00,,---,0.00,VWS V14.01,2013-03-15 15:38:00,
2013-03-15 08:43:00,49.6,-6.9,30.21,NE,51,0.0,0.0,9,0.00,,---,0.00,VWS V14.01,2013-03-15 15:43:00,
2013-03-15 08:48:00,49.7,-6.8,30.21,NE,51,0.0,0.0,9,0.00,,---,0.00,VWS V14.01,2013-03-15 15:48:00,
2013-03-15 08:53:00,49.7,-6.8,30.21,NE,51,0.0,0.0,9,0.00,,---,0.00,VWS V14.01,2013-03-15 15:53:00,
2013-03-15 08:58:00,49.7,-9.2,30.21,NE,51,0.0,0.0,8,0.00,,---,0.00,VWS V14.01,2013-03-15 15:58:00,
2013-03-15 09:03:00,49.7,-9.2,30.21,NE,51,0.0,0.0,8,0.00,,---,0.00,VWS V14.01,2013-03-15 16:03:00,
2013-03-15 09:08:00,49.7,-9.2,30.22,NE,51,0.0,0.0,8,0.00,,---,0.00,VWS V14.01,2013-03-15 16:08:00,
2013-03-15 09:13:00,49.8,-9.2,30.22,NE,51,0.0,0.0,8,0.00,,---,0.00,VWS V14.01,2013-03-15 16:13:00,
2013-03-15 09:18:00,49.9,-9.1,30.22,NE,51,0.0,0.0,8,0.00,,---,0.00,VWS V14.01,2013-03-15 16:18:00,
2013-03-15 09:23:00,49.9,-9.1,30.22,NE,51,0.0,0.0,8,0.00,,---,0.00,VWS V14.01,2013-03-15 16:23:00,
2013-03-15 09:28:00,50.0,-9.0,30.22,NE,51,0.0,0.0,8,0.00,,---,0.00,VWS V14.01,2013-03-15 16:28:00,
2013-03-15 09:33:00,50.2,-11.6,30.22,NE,51,0.0,0.0,7,0.00,,---,0.00,VWS V14.01,2013-03-15 16:33:00,
2013-03-15 09:38:00,50.3,-11.5,30.22,NE,51,0.0,0.0,7,0.00,,---,0.00,VWS V14.01,2013-03-15 16:38:00,
2013-03-15 09:43:00,50.3,-11.5,30.22,NE,51,0.0,0.0,7,0.00,,---,0.00,VWS V14.01,2013-03-15 16:43:00,
2013-03-15 09:48:00,50.4,-8.7,30.22,NE,51,0.0,0.0,8,0.00,,---,0.00,VWS V14.01,2013-03-15 16:48:00,
2013-03-15 09:53:00,50.5,-8.6,30.23,NE,51,0.0,0.0,8,0.00,,---,0.00,VWS V14.01,2013-03-15 16:53:00,
2013-03-15 09:58:00,50.6,-11.3,30.23,NE,51,0.0,0.0,7,0.00,,---,0.00,VWS V14.01,2013-03-15 16:58:00,
2013-03-15 10:03:00,50.8,-14.2,30.23,NE,51,0.0,0.0,6,0.00,,---,0.00,VWS V14.01,2013-03-15 17:03:00,
2013-03-15 10:08:00,51.0,-14.0,30.23,NE,51,0.0,0.0,6,0.00,,---,0.00,VWS V14.01,2013-03-15 17:08:00,
2013-03-15 10:13:00,51.1,-14.0,30.23,NE,51,0.0,0.0,6,0.00,,---,0.00,VWS V14.01,2013-03-15 17:13:00,
2013-03-15 10:18:00,51.2,-10.8,30.23,NE,51,0.0,0.0,7,0.00,,---,0.00,VWS V14.01,2013-03-15 17:18:00,
2013-03-15 10:23:00,51.4,-8.0,30.23,NE,51,0.0,0.0,8,0.00,,---,0.00,VWS V14.01,2013-03-15 17:23:00,
2013-03-15 10:28:00,51.5,-7.9,30.23,NE,51,0.0,0.0,8,0.00,,---,0.00,VWS V14.01,2013-03-15 17:28:00,
2013-03-15 10:33:00,51.7,-1.1,30.23,NE,51,0.0,0.0,11,0.00,,---,0.00,VWS V14.01,2013-03-15 17:33:00,
2013-03-15 10:38:00,51.8,9.7,30.23,NE,51,0.0,2.0,18,0.00,,---,0.00,VWS V14.01,2013-03-15 17:38:00,
2013-03-15 10:43:00,52.2,14.5,30.23,NE,51,0.0,2.0,22,0.00,,---,0.00,VWS V14.01,2013-03-15 17:43:00,
2013-03-15 10:48:00,52.5,13.7,30.23,NE,51,0.0,0.0,21,0.00,,---,0.00,VWS V14.01,2013-03-15 17:48:00,
2013-03-15 10:53:00,52.5,28.3,30.23,East,90,0.0,2.0,39,0.00,,---,0.00,VWS V14.01,2013-03-15 17:53:00,
2013-03-15 10:58:00,52.9,31.6,30.22,East,90,0.0,0.0,44,0.00,,---,0.00,VWS V14.01,2013-03-15 17:58:00,
2013-03-15 11:03:00,53.1,36.4,30.22,East,90,0.0,1.0,53,0.00,,---,0.00,VWS V14.01,2013-03-15 18:03:00,
2013-03-15 11:08:00,53.5,35.8,30.22,East,90,0.0,2.0,51,0.00,,---,0.00,VWS V14.01,2013-03-15 18:08:00,
2013-03-15 11:13:00,53.8,41.5,30.22,ESE,107,0.0,4.0,63,0.00,,---,0.00,VWS V14.01,2013-03-15 18:13:00,
2013-03-15 11:18:00,53.9,42.8,30.22,ENE,62,1.0,4.0,66,0.00,,---,0.00,VWS V14.01,2013-03-15 18:18:00,
2013-03-15 11:23:00,54.1,41.4,30.22,East,87,0.0,2.0,62,0.00,,---,0.00,VWS V14.01,2013-03-15 18:23:00,
2013-03-15 11:29:00,54.2,44.3,30.22,East,81,1.0,3.0,69,0.00,,---,0.00,VWS V14.01,2013-03-15 18:29:00,
2013-03-15 11:34:00,54.3,44.4,30.22,NE,46,0.0,2.0,69,0.00,,---,0.00,VWS V14.01,2013-03-15 18:34:00,
2013-03-15 11:39:00,54.5,44.9,30.22,NE,46,0.0,0.0,70,0.00,,---,0.00,VWS V14.01,2013-03-15 18:39:00,
2013-03-15 11:44:00,55.0,45.4,30.22,NE,46,2.0,2.0,70,0.00,,---,0.00,VWS V14.01,2013-03-15 18:44:00,
2013-03-15 11:49:00,55.4,47.6,30.21,East,101,2.0,6.0,75,0.00,,---,0.00,VWS V14.01,2013-03-15 18:49:00,
2013-03-15 11:54:00,55.6,48.2,30.21,East,87,0.0,6.0,76,0.00,,---,0.00,VWS V14.01,2013-03-15 18:54:00,
2013-03-15 11:59:00,56.0,47.5,30.21,SE,126,0.0,5.0,73,0.00,,---,0.00,VWS V14.01,2013-03-15 18:59:00,
2013-03-15 12:04:00,56.5,49.4,30.21,NE,41,0.0,6.0,77,0.00,,---,0.00,VWS V14.01,2013-03-15 19:04:00,
2013-03-15 12:09:00,56.5,49.4,30.21,WNW,296,4.0,6.0,77,0.00,,---,0.00,VWS V14.01,2013-03-15 19:09:00,
2013-03-15 12:14:00,56.4,49.3,30.21,South,190,2.0,5.0,77,0.00,,---,0.00,VWS V14.01,2013-03-15 19:14:00,
2013-03-15 12:19:00,56.4,49.3,30.21,SSW,198,0.0,1.0,77,0.00,,---,0.00,VWS V14.01,2013-03-15 19:19:00,
2013-03-15 12:24:00,56.4,49.3,30.21,East,95,1.0,2.0,77,0.00,,---,0.00,VWS V14.01,2013-03-15 19:24:00,
2013-03-15 12:29:00,56.4,48.9,30.21,SSE,155,0.0,3.0,76,0.00,,---,0.00,VWS V14.01,2013-03-15 19:29:00,
2013-03-15 12:34:00,56.2,49.1,30.21,WNW,282,0.0,5.0,77,0.00,,---,0.00,VWS V14.01,2013-03-15 19:34:00,
2013-03-15 12:39:00,56.1,49.0,30.21,SSW,211,2.0,5.0,77,0.00,,---,0.00,VWS V14.01,2013-03-15 19:39:00,
2013-03-15 12:44:00,56.4,48.6,30.21,ENE,61,3.0,5.0,75,0.00,,---,0.00,VWS V14.01,2013-03-15 19:44:00,
2013-03-15 12:49:00,56.5,49.4,30.21,ENE,65,0.0,4.0,77,0.00,,---,0.00,VWS V14.01,2013-03-15 19:49:00,
2013-03-15 12:54:00,56.8,49.7,30.21,NNW,343,0.0,5.0,77,0.00,,---,0.00,VWS V14.01,2013-03-15 19:54:00,
2013-03-15 12:59:00,57.1,50.0,30.21,NNE,19,3.0,5.0,77,0.00,,---,0.00,VWS V14.01,2013-03-15 19:59:00,
2013-03-15 13:04:00,57.1,50.0,30.21,South,171,0.0,5.0,77,0.00,,---,0.00,VWS V14.01,2013-03-15 20:04:00,
2013-03-15 13:09:00,57.1,50.0,30.21,West,276,1.0,7.0,77,0.00,,---,0.00,VWS V14.01,2013-03-15 20:09:00,
2013-03-15 13:14:00,57.2,49.7,30.21,SW,230,5.0,5.0,76,0.00,,---,0.00,VWS V14.01,2013-03-15 20:14:00,
2013-03-15 13:19:00,57.6,50.1,30.21,WSW,251,1.0,6.0,76,0.00,,---,0.00,VWS V14.01,2013-03-15 20:19:00,
2013-03-15 13:24:00,57.7,50.2,30.21,ESE,103,1.0,4.0,76,0.00,,---,0.00,VWS V14.01,2013-03-15 20:24:00,
2013-03-15 13:29:00,58.0,50.5,30.21,SE,130,6.0,6.0,76,0.00,,---,0.00,VWS V14.01,2013-03-15 20:29:00,
2013-03-15 13:34:00,57.7,50.2,30.21,WSW,248,0.0,4.0,76,0.00,,---,0.00,VWS V14.01,2013-03-15 20:34:00,
2013-03-15 13:39:00,57.5,50.0,30.21,ENE,75,0.0,4.0,76,0.00,,---,0.00,VWS V14.01,2013-03-15 20:39:00,
2013-03-15 13:44:00,57.3,49.8,30.21,WNW,300,2.0,3.0,76,0.00,,---,0.00,VWS V14.01,2013-03-15 20:44:00,
2013-03-15 13:49:00,57.1,49.6,30.21,SSW,196,0.0,1.0,76,0.00,,---,0.00,VWS V14.01,2013-03-15 20:49:00,
2013-03-15 13:54:00,57.1,49.6,30.21,SSW,196,0.0,0.0,76,0.01,,---,0.01,VWS V14.01,2013-03-15 20:54:00,
2013-03-15 13:59:00,57.0,49.5,30.21,SSW,196,0.0,0.0,76,0.01,,---,0.01,VWS V14.01,2013-03-15 20:59:00,
2013-03-15 14:04:00,56.7,48.5,30.21,East,90,1.0,3.0,74,0.01,,---,0.01,VWS V14.01,2013-03-15 21:04:00,
2013-03-15 14:09:00,56.5,47.6,30.21,ENE,77,0.0,4.0,72,0.01,,---,0.01,VWS V14.01,2013-03-15 21:09:00,
2013-03-15 14:14:00,56.4,47.5,30.21,East,97,0.0,3.0,72,0.01,,---,0.01,VWS V14.01,2013-03-15 21:14:00,
2013-03-15 14:19:00,56.8,48.6,30.20,North,10,0.0,2.0,74,0.01,,---,0.01,VWS V14.01,2013-03-15 21:19:00,
2013-03-15 14:24:00,57.0,48.4,30.20,East,93,0.0,2.0,73,0.01,,---,0.01,VWS V14.01,2013-03-15 21:24:00,
2013-03-15 14:29:00,56.9,49.8,30.20,ENE,66,1.0,4.0,77,0.01,,---,0.01,VWS V14.01,2013-03-15 21:29:00,
2013-03-15 14:34:00,56.9,49.4,30.20,WNW,289,0.0,4.0,76,0.01,,---,0.01,VWS V14.01,2013-03-15 21:34:00,
2013-03-15 14:39:00,57.3,50.2,30.19,NW,305,0.0,1.0,77,0.01,,---,0.01,VWS V14.01,2013-03-15 21:39:00,
2013-03-15 14:44:00,57.6,50.1,30.19,ENE,71,0.0,3.0,76,0.01,,---,0.01,VWS V14.01,2013-03-15 21:44:00,
2013-03-15 14:49:00,57.6,50.1,30.19,ESE,117,1.0,5.0,76,0.01,,---,0.01,VWS V14.01,2013-03-15 21:49:00,
2013-03-15 14:54:00,57.7,50.2,30.19,ESE,108,2.0,4.0,76,0.01,,---,0.01,VWS V14.01,2013-03-15 21:54:00,
2013-03-15 14:59:00,58.0,50.5,30.19,ESE,108,0.0,2.0,76,0.00,,---,0.01,VWS V14.01,2013-03-15 21:59:00,
2013-03-15 15:04:00,58.2,50.3,30.19,ENE,69,0.0,2.0,75,0.00,,---,0.01,VWS V14.01,2013-03-15 22:04:00,
2013-03-15 15:09:00,58.5,49.9,30.18,ENE,57,0.0,5.0,73,0.00,,---,0.01,VWS V14.01,2013-03-15 22:09:00,
2013-03-15 15:14:00,58.5,50.2,30.18,East,88,0.0,2.0,74,0.00,,---,0.01,VWS V14.01,2013-03-15 22:14:00,
2013-03-15 15:19:00,58.4,50.2,30.18,East,88,0.0,2.0,74,0.00,,---,0.01,VWS V14.01,2013-03-15 22:19:00,
2013-03-15 15:24:00,58.6,50.7,30.18,East,101,0.0,2.0,75,0.00,,---,0.01,VWS V14.01,2013-03-15 22:24:00,
2013-03-15 15:29:00,58.6,49.6,30.18,WNW,284,3.0,7.0,72,0.00,,---,0.01,VWS V14.01,2013-03-15 22:29:00,
2013-03-15 15:34:00,58.6,50.0,30.18,WNW,284,0.0,2.0,73,0.00,,---,0.01,VWS V14.01,2013-03-15 22:34:00,
2013-03-15 15:39:00,58.8,50.5,30.18,WNW,284,1.0,1.0,74,0.00,,---,0.01,VWS V14.01,2013-03-15 22:39:00,
2013-03-15 15:44:00,58.9,49.5,30.18,ENE,62,4.0,4.0,71,0.00,,---,0.01,VWS V14.01,2013-03-15 22:44:00,
2013-03-15 15:49:00,59.0,49.6,30.18,NE,51,4.0,5.0,71,0.00,,---,0.01,VWS V14.01,2013-03-15 22:49:00,
2013-03-15 15:54:00,59.0,49.6,30.18,East,101,1.0,8.0,71,0.00,,---,0.01,VWS V14.01,2013-03-15 22:54:00,
2013-03-15 15:59:00,58.9,49.2,30.18,ESE,115,0.0,5.0,70,0.00,,---,0.01,VWS V14.01,2013-03-15 22:59:00,
2013-03-15 16:04:00,58.9,49.5,30.18,ENE,57,0.0,4.0,71,0.00,,---,0.01,VWS V14.01,2013-03-15 23:04:00,
2013-03-15 16:09:00,58.9,49.9,30.17,East,81,1.0,2.0,72,0.00,,---,0.01,VWS V14.01,2013-03-15 23:09:00,
2013-03-15 16:14:00,58.9,48.8,30.17,SW,227,0.0,5.0,69,0.00,,---,0.01,VWS V14.01,2013-03-15 23:14:00,
2013-03-15 16:19:00,58.9,49.2,30.17,ENE,70,0.0,4.0,70,0.00,,---,0.01,VWS V14.01,2013-03-15 23:19:00,
2013-03-15 16:24:00,58.8,49.0,30.17,SE,136,2.0,3.0,70,0.00,,---,0.01,VWS V14.01,2013-03-15 23:24:00,
2013-03-15 16:29:00,58.7,48.6,30.17,NW,306,0.0,5.0,69,0.00,,---,0.01,VWS V14.01,2013-03-15 23:29:00,
2013-03-15 16:34:00,58.7,49.3,30.17,ESE,111,1.0,4.0,71,0.00,,---,0.01,VWS V14.01,2013-03-15 23:34:00,
2013-03-15 16:39:00,58.6,49.2,30.17,East,93,0.0,6.0,71,0.00,,---,0.01,VWS V14.01,2013-03-15 23:39:00,
2013-03-15 16:44:00,58.6,50.0,30.17,ENE,57,0.0,2.0,73,0.00,,---,0.01,VWS V14.01,2013-03-15 23:44:00,
2013-03-15 16:49:00,58.5,49.5,30.17,ENE,57,1.0,2.0,72,0.00,,---,0.01,VWS V14.01,2013-03-15 23:49:00,
2013-03-15 16:54:00,58.5,49.9,30.17,SE,146,0.0,1.0,73,0.00,,---,0.01,VWS V14.01,2013-03-15 23:54:00,
2013-03-15 16:59:00,58.4,49.4,30.17,NE,38,0.0,1.0,72,0.00,,---,0.01,VWS V14.01,2013-03-15 23:59:00,
2013-03-15 17:04:00,58.4,49.4,30.16,NE,38,0.0,0.0,72,0.00,,---,0.01,VWS V14.01,2013-03-16 00:04:00,
2013-03-15 17:09:00,58.4,49.8,30.16,NE,38,0.0,0.0,73,0.00,,---,0.01,VWS V14.01,2013-03-16 00:09:00,
2013-03-15 17:14:00,58.2,49.6,30.16,NE,38,0.0,1.0,73,0.00,,---,0.01,VWS V14.01,2013-03-16 00:14:00,
2013-03-15 17:19:00,58.1,49.9,30.16,NNW,333,0.0,1.0,74,0.00,,---,0.01,VWS V14.01,2013-03-16 00:19:00,
2013-03-15 17:24:00,58.0,49.8,30.16,NE,40,1.0,2.0,74,0.00,,---,0.01,VWS V14.01,2013-03-16 00:24:00,
2013-03-15 17:29:00,57.9,49.7,30.16,NNW,336,2.0,5.0,74,0.00,,---,0.01,VWS V14.01,2013-03-16 00:29:00,
2013-03-15 17:34:00,57.7,49.8,30.16,WSW,254,0.0,3.0,75,0.00,,---,0.01,VWS V14.01,2013-03-16 00:34:00,
2013-03-15 17:39:00,57.6,49.8,30.16,ESE,109,0.0,4.0,75,0.00,,---,0.01,VWS V14.01,2013-03-16 00:39:00,
2013-03-15 17:44:00,57.5,49.7,30.16,ESE,109,0.0,0.0,75,0.00,,---,0.01,VWS V14.01,2013-03-16 00:44:00,
2013-03-15 17:49:00,57.5,50.0,30.16,ESE,109,0.0,0.0,76,0.00,,---,0.01,VWS V14.01,2013-03-16 00:49:00,
2013-03-15 17:54:00,57.3,49.5,30.16,ESE,109,0.0,0.0,75,0.00,,---,0.01,VWS V14.01,2013-03-16 00:54:00,
2013-03-15 17:59:00,57.3,49.8,30.16,ESE,109,0.0,0.0,76,0.00,,---,0.01,VWS V14.01,2013-03-16 00:59:00,
2013-03-15 18:04:00,57.2,49.4,30.16,ESE,109,0.0,0.0,75,0.00,,---,0.01,VWS V14.01,2013-03-16 01:04:00,
2013-03-15 18:09:00,57.1,48.9,30.16,ESE,109,0.0,0.0,74,0.00,,---,0.01,VWS V14.01,2013-03-16 01:09:00,
2013-03-15 18:14:00,56.7,48.9,30.16,ESE,109,0.0,0.0,75,0.00,,---,0.01,VWS V14.01,2013-03-16 01:14:00,
2013-03-15 18:19:00,56.5,48.7,30.16,ESE,109,0.0,0.0,75,0.00,,---,0.01,VWS V14.01,2013-03-16 01:19:00,
2013-03-15 18:24:00,56.3,48.5,30.16,ESE,109,0.0,1.0,75,0.00,,---,0.01,VWS V14.01,2013-03-16 01:24:00,
2013-03-15 18:29:00,56.0,47.8,30.16,ESE,109,0.0,0.0,74,0.00,,---,0.01,VWS V14.01,2013-03-16 01:29:00,
2013-03-15 18:34:00,55.9,47.7,30.16,ESE,109,0.0,0.0,74,0.00,,---,0.01,VWS V14.01,2013-03-16 01:34:00,
2013-03-15 18:39:00,55.5,47.4,30.16,ESE,109,0.0,0.0,74,0.00,,---,0.01,VWS V14.01,2013-03-16 01:39:00,
2013-03-15 18:44:00,55.2,47.8,30.16,ESE,109,0.0,1.0,76,0.00,,---,0.01,VWS V14.01,2013-03-16 01:44:00,
2013-03-15 18:49:00,55.3,47.5,30.16,ESE,109,0.0,0.0,75,0.00,,---,0.01,VWS V14.01,2013-03-16 01:49:00,
2013-03-15 18:54:00,55.1,46.6,30.16,ESE,109,0.0,0.0,73,0.00,,---,0.01,VWS V14.01,2013-03-16 01:54:00,
2013-03-15 18:59:00,54.8,46.7,30.16,ESE,109,0.0,0.0,74,0.00,,---,0.01,VWS V14.01,2013-03-16 01:59:00,
2013-03-15 19:04:00,54.5,46.0,30.16,ESE,109,0.0,0.0,73,0.00,,---,0.01,VWS V14.01,2013-03-16 02:04:00,
2013-03-15 19:09:00,54.3,45.8,30.16,ESE,109,0.0,0.0,73,0.00,,---,0.01,VWS V14.01,2013-03-16 02:09:00,
2013-03-15 19:14:00,54.2,45.0,30.16,ESE,109,0.0,0.0,71,0.00,,---,0.01,VWS V14.01,2013-03-16 02:14:00,
2013-03-15 19:19:00,54.1,44.2,30.16,ESE,109,0.0,0.0,69,0.00,,---,0.01,VWS V14.01,2013-03-16 02:19:00,
2013-03-15 19:24:00,53.8,43.1,30.16,ESE,109,0.0,0.0,67,0.00,,---,0.01,VWS V14.01,2013-03-16 02:24:00,
2013-03-15 19:29:00,53.6,43.3,30.16,ESE,109,0.0,0.0,68,0.00,,---,0.01,VWS V14.01,2013-03-16 02:29:00,
2013-03-15 19:34:00,53.4,42.3,30.16,ESE,109,0.0,0.0,66,0.00,,---,0.01,VWS V14.01,2013-03-16 02:34:00,
2013-03-15 19:39:00,53.3,41.8,30.16,ESE,109,0.0,0.0,65,0.00,,---,0.01,VWS V14.01,2013-03-16 02:39:00,
2013-03-15 19:44:00,53.3,40.2,30.16,ESE,109,0.0,0.0,61,0.00,,---,0.01,VWS V14.01,2013-03-16 02:44:00,
2013-03-15 19:49:00,53.2,40.1,30.16,ESE,109,0.0,0.0,61,0.00,,---,0.01,VWS V14.01,2013-03-16 02:49:00,
2013-03-15 19:54:00,53.2,40.1,30.16,ESE,109,0.0,0.0,61,0.00,,---,0.01,VWS V14.01,2013-03-16 02:54:00,
2013-03-15 19:59:00,53.1,40.0,30.17,ESE,109,0.0,0.0,61,0.00,,---,0.01,VWS V14.01,2013-03-16 02:59:00,
2013-03-15 20:04:00,53.0,39.5,30.17,ESE,109,0.0,0.0,60,0.00,,---,0.01,VWS V14.01,2013-03-16 03:04:00,
2013-03-15 20:09:00,53.0,39.9,30.16,ESE,109,0.0,0.0,61,0.00,,---,0.01,VWS V14.01,2013-03-16 03:09:00,
2013-03-15 20:14:00,53.0,39.5,30.16,ESE,109,0.0,0.0,60,0.00,,---,0.01,VWS V14.01,2013-03-16 03:14:00,
2013-03-15 20:19:00,52.9,39.0,30.16,ESE,109,0.0,0.0,59,0.00,,---,0.01,VWS V14.01,2013-03-16 03:19:00,
2013-03-15 20:24:00,52.8,40.2,30.16,ESE,109,0.0,1.0,62,0.00,,---,0.01,VWS V14.01,2013-03-16 03:24:00,
2013-03-15 20:29:00,52.8,40.6,30.16,NE,41,0.0,4.0,63,0.00,,---,0.01,VWS V14.01,2013-03-16 03:29:00,
2013-03-15 20:34:00,52.8,41.4,30.16,ENE,64,0.0,4.0,65,0.00,,---,0.01,VWS V14.01,2013-03-16 03:34:00,
2013-03-15 20:39:00,52.8,40.6,30.16,ENE,64,0.0,1.0,63,0.00,,---,0.01,VWS V14.01,2013-03-16 03:39:00,
2013-03-15 20:44:00,52.7,42.5,30.16,NE,45,1.0,5.0,68,0.00,,---,0.01,VWS V14.01,2013-03-16 03:44:00,
2013-03-15 20:49:00,52.8,43.7,30.16,NNE,26,2.0,5.0,71,0.00,,---,0.01,VWS V14.01,2013-03-16 03:49:00,
2013-03-15 20:54:00,52.9,44.5,30.16,South,190,1.0,5.0,73,0.00,,---,0.01,VWS V14.01,2013-03-16 03:54:00,
2013-03-15 20:59:00,53.0,44.2,30.16,ESE,107,0.0,4.0,72,0.00,,---,0.01,VWS V14.01,2013-03-16 03:59:00,
2013-03-15 21:00:00,53.0,44.2,30.16,ESE,107,0.0,4.0,72,0.00,,---,0.01,VWS V14.01,2013-03-16 04:00:00,
2013-03-15 21:05:00,52.9,43.4,30.16,ESE,107,0.0,0.0,70,0.00,,---,0.01,VWS V14.01,2013-03-16 04:05:00,
2013-03-15 21:10:00,52.7,42.5,30.16,ESE,107,0.0,0.0,68,0.00,,---,0.01,VWS V14.01,2013-03-16 04:10:00,
2013-03-15 21:15:00,52.6,40.8,30.16,ESE,107,0.0,0.0,64,0.00,,---,0.01,VWS V14.01,2013-03-16 04:15:00,
2013-03-15 21:20:00,52.4,42.2,30.16,ESE,107,0.0,1.0,68,0.00,,---,0.01,VWS V14.01,2013-03-16 04:20:00,
2013-03-15 21:25:00,52.3,39.7,30.16,ESE,107,0.0,0.0,62,0.00,,---,0.01,VWS V14.01,2013-03-16 04:25:00,
2013-03-15 21:30:00,52.2,39.6,30.16,ESE,107,0.0,0.0,62,0.00,,---,0.01,VWS V14.01,2013-03-16 04:30:00,
2013-03-15 21:35:00,52.1,39.9,30.16,ESE,107,0.0,1.0,63,0.00,,---,0.01,VWS V14.01,2013-03-16 04:35:00,
2013-03-15 21:40:00,51.9,36.7,30.16,ESE,107,0.0,0.0,56,0.00,,---,0.01,VWS V14.01,2013-03-16 04:40:00,
2013-03-15 21:45:00,51.7,34.2,30.16,ESE,107,0.0,0.0,51,0.00,,---,0.01,VWS V14.01,2013-03-16 04:45:00,
2013-03-15 21:50:00,51.5,31.4,30.16,ESE,107,0.0,0.0,46,0.00,,---,0.01,VWS V14.01,2013-03-16 04:50:00,
2013-03-15 21:55:00,51.3,29.0,30.16,ESE,107,0.0,0.0,42,0.00,,---,0.01,VWS V14.01,2013-03-16 04:55:00,
2013-03-15 22:00:00,51.0,25.7,30.16,ESE,107,0.0,0.0,37,0.00,,---,0.01,VWS V14.01,2013-03-16 05:00:00,
2013-03-15 22:05:00,50.9,23.5,30.16,ESE,107,0.0,0.0,34,0.00,,---,0.01,VWS V14.01,2013-03-16 05:05:00,
2013-03-15 22:10:00,50.8,22.0,30.16,ESE,107,0.0,0.0,32,0.00,,---,0.01,VWS V14.01,2013-03-16 05:10:00,
2013-03-15 22:15:00,50.6,24.0,30.16,NE,41,0.0,3.0,35,0.00,,---,0.01,VWS V14.01,2013-03-16 05:15:00,
2013-03-15 22:20:00,50.5,24.6,30.16,NE,41,0.0,0.0,36,0.00,,---,0.01,VWS V14.01,2013-03-16 05:20:00,
2013-03-15 22:25:00,50.4,30.4,30.16,NE,55,0.0,4.0,46,0.00,,---,0.01,VWS V14.01,2013-03-16 05:25:00,
2013-03-15 22:30:00,50.5,33.5,30.16,SW,216,5.0,6.0,52,0.00,,---,0.01,VWS V14.01,2013-03-16 05:30:00,
2013-03-15 22:35:00,50.5,35.4,30.16,West,281,0.0,5.0,56,0.00,,---,0.01,VWS V14.01,2013-03-16 05:35:00,
2013-03-15 22:40:00,50.5,33.5,30.16,NE,42,0.0,2.0,52,0.00,,---,0.01,VWS V14.01,2013-03-16 05:40:00,
2013-03-15 22:45:00,50.4,32.0,30.16,SSW,198,0.0,1.0,49,0.00,,---,0.01,VWS V14.01,2013-03-16 05:45:00,
2013-03-15 22:50:00,50.2,30.8,30.15,SSW,198,1.0,1.0,47,0.00,,---,0.01,VWS V14.01,2013-03-16 05:50:00,
2013-03-15 22:55:00,50.0,32.1,30.16,South,182,0.0,0.0,50,0.00,,---,0.01,VWS V14.01,2013-03-16 05:55:00,
2013-03-15 23:00:00,49.9,35.7,30.16,NNE,19,0.0,0.0,58,0.00,,---,0.01,VWS V14.01,2013-03-16 06:00:00,
2013-03-15 23:05:00,50.0,37.1,30.16,SSE,163,0.0,0.0,61,0.00,,---,0.01,VWS V14.01,2013-03-16 06:05:00,
2013-03-15 23:10:00,50.1,34.6,30.16,East,94,0.0,0.0,55,0.00,,---,0.01,VWS V14.01,2013-03-16 06:10:00,
2013-03-15 23:15:00,50.0,33.6,30.16,ESE,112,0.0,1.0,53,0.00,,---,0.01,VWS V14.01,2013-03-16 06:15:00,
2013-03-15 23:20:00,50.2,35.1,30.16,ESE,109,0.0,0.0,56,0.00,,---,0.01,VWS V14.01,2013-03-16 06:20:00,
2013-03-15 23:25:00,50.1,30.1,30.16,ESE,109,0.0,0.0,46,0.00,,---,0.01,VWS V14.01,2013-03-16 06:25:00,
2013-03-15 23:30:00,49.9,28.9,30.16,ESE,109,0.0,0.0,44,0.00,,---,0.01,VWS V14.01,2013-03-16 06:30:00,
2013-03-15 23:35:00,49.7,28.7,30.16,ESE,109,0.0,0.0,44,0.01,,---,0.02,VWS V14.01,2013-03-16 06:35:00,
2013-03-15 23:40:00,49.6,29.1,30.15,ESE,109,0.0,0.0,45,0.01,,---,0.02,VWS V14.01,2013-03-16 06:40:00,
2013-03-15 23:45:00,49.5,28.5,30.15,ESE,109,0.0,0.0,44,0.02,,---,0.03,VWS V14.01,2013-03-16 06:45:00,
2013-03-15 23:50:00,49.4,25.5,30.15,ESE,109,0.0,0.0,39,0.02,,---,0.03,VWS V14.01,2013-03-16 06:50:00,
2013-03-15 23:55:00,49.2,26.5,30.15,NE,48,0.0,0.0,41,0.02,,---,0.03,VWS V14.01,2013-03-16 06:55:00,